This demonstration page uses our WeatherBlox Daily Observations layout. Learn more.

Left ArrowRight Arrow

Hourly Observations for May 20, 2021

Temp ( °F °C ) Dew Point ( °F °C ) Humidity (%) Winds ( mph kmh ) Pressure ( in mb ) Visibility ( mi km ) Precip ( " mm )
12:15 am 00:15 Mostly Cloudy 61 16.3 60 15.5 95 95 SSE 8 13 29.88 1012 7 11 N/A
12:35 am 00:35 Cloudy 61 16.3 60 15.6 96 96 S 9 15 29.88 1012 7 11 N/A
12:55 am 00:55 Cloudy 61 16.3 60 15.6 96 96 SSE 9 15 29.88 1012 7 11 N/A
1:15 am 01:15 Cloudy 62 16.5 61 16 97 97 S 12 19 29.88 1012 7 11 N/A
1:35 am 01:35 Cloudy 62 16.7 61 16 96 96 S 13 20 29.86 1011 7 11 N/A
1:55 am 01:55 Cloudy 62 16.7 61 16 96 96 S 12 19 29.86 1011 10 16 N/A
2:15 am 02:15 Cloudy 62 16.8 61 16 95 95 S 10 17 29.86 1011 7 11 N/A
2:35 am 02:35 Cloudy 62 16.8 61 16 95 95 S 10 17 29.86 1011 10 16 N/A
2:55 am 02:55 Cloudy 62 16.7 60 15.7 94 94 S 12 19 29.85 1011 10 16 N/A
3:15 am 03:15 Cloudy 62 16.7 60 15.7 94 94 S 12 19 29.85 1011 10 16 N/A
3:35 am 03:35 Cloudy 62 16.7 60 15.8 94 94 S 12 19 29.85 1011 10 16 N/A
3:55 am 03:55 Cloudy 62 16.7 60 15.8 94 94 S 10 17 29.84 1011 10 16 N/A
4:15 am 04:15 Cloudy 62 16.7 60 15.7 94 94 S 9 15 29.85 1011 10 16 N/A
4:35 am 04:35 Cloudy 62 16.7 60 15.7 94 94 S 13 20 29.85 1011 10 16 N/A
4:55 am 04:55 Cloudy 62 16.6 60 15.7 94 94 S 12 19 29.86 1011 10 16 N/A
5:15 am 05:15 Cloudy 62 16.6 60 15.7 94 94 S 13 20 29.87 1011 10 16 N/A
5:35 am 05:35 Cloudy 62 16.6 60 15.7 94 94 S 12 19 29.87 1011 10 16 N/A
5:55 am 05:55 Cloudy 62 16.6 60 15.7 94 94 S 9 15 29.87 1011 10 16 N/A
6:15 am 06:15 Cloudy 62 16.6 60 15.7 94 94 S 9 15 29.87 1011 10 16 N/A
6:35 am 06:35 Cloudy 62 16.6 60 15.7 94 94 S 9 15 29.88 1012 7 11 N/A
6:55 am 06:55 Cloudy with Mist and Fog 62 16.6 60 15.8 95 95 S 10 17 29.88 1012 5 8 N/A
7:15 am 07:15 Cloudy with Mist and Fog 62 16.7 61 16 96 96 S 9 15 29.87 1012 3 5 N/A
7:35 am 07:35 Cloudy with Mist and Fog 62 16.7 61 16 96 96 S 9 15 29.87 1012 3 5 N/A
7:55 am 07:55 Cloudy with Mist and Fog 62 16.8 61 16.2 96 96 S 7 11 29.87 1012 5 8 N/A
8:15 am 08:15 Cloudy 63 17.2 62 16.5 96 96 SSE 10 17 29.87 1012 7 11 N/A
8:35 am 08:35 Cloudy 63 17.1 61 16.2 94 94 SSE 13 20 29.87 1012 7 11 N/A
8:55 am 08:55 Cloudy 64 17.5 61 16.1 92 92 SSE 10 17 29.88 1012 10 16 N/A
9:15 am 09:15 Cloudy 64 17.6 61 16 90 90 SSE 13 20 29.88 1012 10 16 N/A
9:35 am 09:35 Cloudy 64 17.8 61 16.1 90 90 SSE 14 22 29.87 1011 10 16 N/A
9:55 am 09:55 Mostly Cloudy 65 18.5 61 16.2 87 87 SSE 16 26 29.86 1011 10 16 N/A
10:15 am 10:15 Cloudy 66 18.8 61 15.9 83 83 SSE 18 30 29.86 1011 10 16 N/A
10:35 am 10:35 Mostly Cloudy 67 19.2 61 16 82 82 SSE 15 24 29.85 1011 10 16 N/A
10:55 am 10:55 Mostly Cloudy 68 20 60 15.6 76 76 SSE 15 24 29.84 1010 10 16 N/A
11:15 am 11:15 Mostly Cloudy 68 20.1 60 15.6 75 75 SSE 15 24 29.84 1010 10 16 N/A
11:35 am 11:35 Partly Cloudy 68 20.2 59 15.1 73 73 SSE 16 26 29.84 1010 10 16 N/A
11:55 am 11:55 Partly Cloudy 71 21.6 60 15.4 68 68 SSE 18 30 29.82 1010 10 16 N/A
12:15 pm 12:15 Partly Cloudy 72 22.1 60 15.6 67 67 S 16 26 29.83 1010 10 16 N/A
12:35 pm 12:35 Cloudy 71 21.5 60 15.4 68 68 SSE 15 24 29.84 1010 10 16 N/A
12:55 pm 12:55 Mostly Cloudy 73 22.5 60 15.3 64 64 SSE 18 30 29.81 1009 10 16 N/A
1:15 pm 13:15 Mostly Cloudy 74 23.1 59 14.8 60 60 SSE 20 31 29.80 1009 10 16 N/A
1:35 pm 13:35 Mostly Cloudy 74 23.6 59 14.9 58 58 S 20 31 29.80 1009 10 16 N/A
1:55 pm 13:55 Mostly Cloudy 74 23.3 58 14.3 57 57 SSE 21 33 29.79 1009 10 16 N/A
2:15 pm 14:15 Mostly Cloudy 75 24 57 14 54 54 SSE 24 39 29.79 1009 10 16 N/A
2:35 pm 14:35 Mostly Cloudy 76 24.5 57 13.9 52 52 S 20 31 29.77 1008 10 16 N/A
2:55 pm 14:55 Mostly Cloudy 77 25.1 57 14 50 50 SSE 20 31 29.77 1008 10 16 N/A
3:15 pm 15:15 Mostly Cloudy 78 25.5 58 14.2 50 50 S 21 33 29.75 1008 10 16 N/A
3:35 pm 15:35 Mostly Cloudy 77 25 58 14.5 52 52 SSE 22 35 29.76 1008 10 16 N/A
3:55 pm 15:55 Cloudy 76 24.2 58 14.5 55 55 SSE 21 33 29.75 1008 10 16 N/A
4:15 pm 16:15 Cloudy 78 25.3 59 14.8 52 52 SSE 21 33 29.74 1007 10 16 N/A
4:35 pm 16:35 Mostly Cloudy 77 25.2 57 13.9 50 50 SSE 24 39 29.75 1007 10 16 N/A
4:55 pm 16:55 Mostly Cloudy 76 24.7 58 14.5 53 53 SSE 22 35 29.75 1007 10 16 N/A
5:15 pm 17:15 Cloudy 78 25.4 59 14.8 52 52 S 23 37 29.73 1007 10 16 N/A
5:35 pm 17:35 Mostly Cloudy 75 24.1 60 15.4 58 58 SSE 23 37 29.74 1007 10 16 N/A
5:55 pm 17:55 Mostly Cloudy 77 25.1 59 15.1 54 54 SSE 24 39 29.74 1007 10 16 N/A
6:15 pm 18:15 Mostly Cloudy 77 24.8 57 14 51 51 SSE 24 39 29.74 1007 10 16 N/A
6:35 pm 18:35 Partly Cloudy 77 24.8 56 13.2 49 49 S 21 33 29.74 1007 10 16 N/A
6:55 pm 18:55 Mostly Cloudy 77 24.8 59 14.9 54 54 SSE 20 31 29.74 1007 10 16 N/A
7:15 pm 19:15 Mostly Cloudy 75 23.8 60 15.4 59 59 SSE 24 39 29.75 1007 10 16 N/A
7:35 pm 19:35 Sunny 74 23.6 60 15.7 61 61 SSE 23 37 29.75 1007 10 16 N/A
7:55 pm 19:55 Sunny 74 23.2 60 15.7 63 63 SSE 21 33 29.75 1008 10 16 N/A
8:15 pm 20:15 Partly Cloudy 72 22.2 60 15.6 66 66 SSE 20 31 29.77 1008 10 16 N/A
8:35 pm 20:35 Partly Cloudy 71 21.4 59 15.1 67 67 SSE 18 30 29.78 1008 10 16 N/A
8:55 pm 20:55 Partly Cloudy 70 21 59 14.9 68 68 SSE 21 33 29.80 1009 10 16 N/A
9:15 pm 21:15 Mostly Cloudy 68 20.2 58 14.7 71 71 SSE 20 31 29.81 1009 10 16 N/A
9:35 pm 21:35 Partly Cloudy 67 19.7 58 14.6 73 73 SSE 18 30 29.82 1010 10 16 N/A
9:55 pm 21:55 Clear 67 19.3 58 14.5 74 74 SSE 17 28 29.82 1010 10 16 N/A
10:15 pm 22:15 Clear 66 18.9 58 14.4 75 75 SSE 18 30 29.83 1010 10 16 N/A
10:35 pm 22:35 Clear 65 18.5 58 14.2 76 76 SSE 17 28 29.84 1010 10 16 N/A
10:55 pm 22:55 Clear 65 18.3 57 14.1 77 77 SSE 17 28 29.85 1011 10 16 N/A
11:15 pm 23:15 Clear 64 18 58 14.2 79 79 SSE 16 26 29.86 1011 10 16 N/A
11:35 pm 23:35 Clear 64 17.8 58 14.5 81 81 SSE 16 26 29.87 1011 10 16 N/A
11:55 pm 23:55 Clear 63 17.4 58 14.6 84 84 SSE 17 28 29.87 1011 10 16 N/A

Powered by AerisWeather